Hettinger, ND

9:45 PM MDT on September 30, 2016 (GMT -0600)
Hettinger Municipal

Weather History for KHEI - October, 2012

Change the Weather History Date:

Saturday, October 6, 2012

  Actual Average Record
Temperature  
Mean Temperature 28 °F -  
Max Temperature 46 °F 61 °F 82 °F (2004)
Min Temperature 10 °F 33 °F 10 °F (2012)
Degree Days  
Heating Degree Days 37 18  
Month to date heating degree days 141 102  
Since 1 July heating degree days 422 473  
Cooling Degree Days 0 0  
Month to date cooling degree days 0 0  
Year to date cooling degree days 581 376  
Moisture  
Dew Point 12 °F    
Average Humidity 57    
Maximum Humidity 84    
Minimum Humidity 22    
Precipitation  
Precipitation 0.00 in 0.03 in 0.29 in (2011)
Month to date precipitation 0.20 0.17  
Year to date precipitation 14.00 14.09  
Sea Level Pressure  
Sea Level Pressure 30.41 in    
Wind  
Wind Speed 4 mph (WNW)    
Max Wind Speed 14 mph    
Max Gust Speed 20 mph    
Visibility 10 miles    
Events      
T = Trace of Precipitation, MM = Missing Value Source: NWS Daily Summary

Daily Weather History Graph

Daily Weather History Graph

Search for Another Location

Airport or City:

Trip Planner

Search our weather history database for the weather conditions in past years. The results will help you decide how hot, cold, wet, or windy it might be!

Date:

Astronomy

Oct. 06, 2012 Rise Set
Actual Time 6:56 AM MDT 6:20 PM MDT
Civil Twilight 6:26 AM MDT 6:49 PM MDT
Nautical Twilight 5:51 AM MDT 7:24 PM MDT
Astronomical Twilight 5:16 AM MDT 7:59 PM MDT
Moon 10:23 PM MDT (10/6) 1:07 PM MDT (10/6)
Length of Visible Light 12h 23m
Length of Day
11h 23m
Waning Gibbous, 65% of the Moon is Illuminated
Oct 6
Waning Gibbous
Oct 8
Last Quarter
Oct 15
New
Oct 21
First Quarter
Oct 29
Full

Hourly Weather History & Observations

Time (MDT) Temp. Windchill Dew Point Humidity Pressure Visibility Wind Dir Wind Speed Gust Speed Precip Events Conditions
12:53 AM 15.1 °F 9.4 °F 10.9 °F 84% 30.49 in 10.0 mi WNW 3.5 mph - N/A   Clear
1:53 AM 12.9 °F 6.9 °F 9.0 °F 84% 30.49 in 10.0 mi WNW 3.5 mph - N/A   Clear
2:53 AM 12.9 °F 6.9 °F 9.0 °F 84% 30.49 in 10.0 mi WNW 3.5 mph - N/A   Clear
3:53 AM 12.0 °F - 7.0 °F 80% 30.49 in 10.0 mi Calm Calm - N/A   Clear
4:53 AM 12.0 °F 5.9 °F 8.1 °F 84% 30.50 in 10.0 mi West 3.5 mph - N/A   Clear
5:53 AM 12.9 °F 6.9 °F 9.0 °F 84% 30.50 in 10.0 mi WNW 3.5 mph - N/A   Clear
6:53 AM 12.9 °F 5.2 °F 9.0 °F 84% 30.52 in 10.0 mi NW 4.6 mph - N/A   Partly Cloudy
7:53 AM 18.0 °F - 12.9 °F 81% 30.52 in 10.0 mi Calm Calm - N/A   Scattered Clouds
8:53 AM 25.0 °F 20.7 °F 19.9 °F 81% 30.51 in 10.0 mi WNW 3.5 mph - N/A   Clear
9:53 AM 34.0 °F 28.0 °F 21.0 °F 59% 30.48 in 10.0 mi West 6.9 mph - N/A   Clear
10:53 AM 37.0 °F 33.3 °F 14.0 °F 39% 30.48 in 10.0 mi Variable 4.6 mph - N/A   Clear
11:53 AM 39.9 °F 34.5 °F 12.9 °F 33% 30.46 in 10.0 mi WNW 8.1 mph - N/A   Clear
12:53 PM 43.0 °F 38.8 °F 12.9 °F 30% 30.43 in 10.0 mi NW 6.9 mph - N/A   Clear
1:53 PM 43.0 °F 39.5 °F 7.0 °F 23% 30.39 in 10.0 mi Variable 5.8 mph - N/A   Clear
2:53 PM 45.0 °F 39.7 °F 9.0 °F 23% 30.37 in 10.0 mi West 10.4 mph 17.3 mph N/A   Clear
3:53 PM 45.0 °F 40.6 °F 8.1 °F 22% 30.35 in 10.0 mi WNW 8.1 mph - N/A   Clear
4:53 PM 45.0 °F 41.2 °F 10.0 °F 24% 30.33 in 10.0 mi WNW 6.9 mph - N/A   Clear
5:53 PM 41.0 °F 37.1 °F 10.9 °F 29% 30.32 in 10.0 mi WSW 5.8 mph - N/A   Clear
6:53 PM 33.1 °F - 12.0 °F 42% 30.32 in 10.0 mi Calm Calm - N/A   Clear
7:53 PM 28.0 °F - 14.0 °F 56% 30.32 in 10.0 mi Calm Calm - N/A   Clear
8:53 PM 27.0 °F - 14.0 °F 58% 30.30 in 10.0 mi Calm Calm - N/A   Clear
10:53 PM 23.0 °F - 14.0 °F 68% 30.24 in 10.0 mi Calm Calm - N/A   Clear
11:53 PM 24.1 °F - 15.1 °F 69% 30.21 in 10.0 mi Calm Calm - N/A   Clear